This is the latest recevied weather packets stored in our database for station/object NW5W-12. If no packets are shown the sender has not sent any weather packets the latest 10 day(s).
| Time | Temp. | Humidity | Pressure | Rain* | Wind** | Luminosity | Snow |
|---|---|---|---|---|---|---|---|
| 1777408131 | 7.78° C | 56% | 1020.6 hPa | 11.68 mm | - | - | - |
| 1777407831 | 7.78° C | 51% | 1020.6 hPa | 11.68 mm | - | - | - |
| 1777407531 | 7.22° C | 54% | 1020.6 hPa | 11.68 mm | - | - | - |
| 1777407231 | 7.78° C | 55% | 1020.6 hPa | 11.68 mm | - | - | - |
| 1777406931 | 7.78° C | 53% | 1020.6 hPa | 11.68 mm | - | - | - |
| 1777406631 | 7.78° C | 54% | 1020.6 hPa | 11.68 mm | - | - | - |
| 1777406331 | 7.78° C | 53% | 1020.6 hPa | 11.68 mm | - | - | - |
| 1777406031 | 7.78° C | 47% | 1020.6 hPa | 11.68 mm | - | - | - |
| 1777405731 | 8.33° C | 43% | 1020.5 hPa | 11.68 mm | - | - | - |
| 1777405431 | 8.89° C | 45% | 1020.5 hPa | 11.68 mm | - | - | - |
| 1777405131 | 8.33° C | 45% | 1020.5 hPa | 11.68 mm | - | - | - |
| 1777404831 | 8.33° C | 42% | 1020.6 hPa | 11.68 mm | - | - | - |
| 1777404531 | 8.33° C | 45% | 1020.6 hPa | 11.68 mm | - | - | - |
| 1777404231 | 8.33° C | 52% | 1020.6 hPa | 11.68 mm | - | - | - |
| 1777403931 | 7.78° C | 50% | 1020.6 hPa | 11.68 mm | - | - | - |
| 1777403631 | 7.78° C | 55% | 1020.6 hPa | 11.68 mm | - | - | - |
| 1777403331 | 7.22° C | 60% | 1020.6 hPa | 11.68 mm | - | - | - |
| 1777403031 | 7.22° C | 60% | 1020.6 hPa | 11.68 mm | - | - | - |
| 1777402731 | 6.67° C | 61% | 1020.6 hPa | 11.68 mm | - | - | - |
| 1777402431 | 6.11° C | 59% | 1020.7 hPa | 11.68 mm | - | - | - |
| 1777402131 | 5° C | 65% | 1020.7 hPa | 11.68 mm | - | - | - |
| 1777401831 | 5° C | 64% | 1020.8 hPa | 11.68 mm | - | - | - |
| 1777401531 | 5° C | 59% | 1020.9 hPa | 11.68 mm | - | - | - |
| 1777401231 | 5° C | 62% | 1020.9 hPa | 11.68 mm | - | - | - |
| 1777400931 | 5° C | 62% | 1020.9 hPa | 11.68 mm | - | - | - |
* Rain since midnight (hover to see other rain measurements)
** Current wind speed in m/s (hover to see current wind gust speed)